CAPE
0 0 0 0 0 0 0 0 0 0 0 0 0 0 0 0 0 0 0 0 0 0 0 0 0 0 0 0 0 0 0 0 0 0 0 0 0 0 0 0 0 0 0
0 0 0 0 0 0 0 0 0 0 0 0 0 0 0 0 0 0 0 0 0 0 0 0 0 0 0 0 0 0 0 0 0 0 0 0 0 0 0 0 0 0 0
0 0 0 0 0 0 0 0 0 0 0 0 0 0 0 0 0 0 0 0 0 0 0 0 0 0 0 0 0 0 0 0 0 0 0 0 0 0 0 0 0 0 0
0 0 0 0 0 0 0 0 0 0 0 0 0 0 0 0 0 0 0 0 0 0 0 0 0 0 0 0 0 0 0 0 0 0 0 0 0 0 0 0 0 0 0
0 0 0 0 0 0 0 0 0 0 0 0 0 0 0 0 0 0 0 0 0 0 0 0 0 0 0 0 0 0 0 0 0 0 0 0 0 0 0 0 0 0 0
0 0 0 0 0 0 0 0 0 0 0 0 0 0 0 0 0 0 0 0 0 0 0 0 0 0 0 0 0 0 0 0 0 0 0 0 0 0 0 0 0 0 0
0 0 0 0 0 0 0 0 0 0 0 0 0 0 0 0 0 0 0 0 0 0 0 0 0 0 0 0 0 0 0 0 0 0 0 0 0 0 0 0 0 0 0
0 0 0 0 0 0 0 0 0 0 0 0 0 0 0 0 0 0 0 0 0 0 0 0 0 0 0 0 0 0 0 0 0 0 0 0 0 0 0 0 0 0 0
0 0 0 0 0 0 0 0 0 0 0 0 0 0 0 0 0 0 0 0 0 0 0 0 0 0 0 0 0 0 0 0 0 0 0 0 0 0 0 0 0 0 0
0 0 0 0 0 0 0 0 0 0 0 0 0 0 0 0 0 0 0 0 0 0 0 0 0 0 0 0 0 0 0 0 0 0 0 0 0 0 0 0 0 0 0
0 0 0 0 0 0 0 0 0 0 0 0 0 0 0 0 0 0 0 0 0 0 0 0 0 0 0 0 0 0 0 0 0 0 0 0 0 0 0 0 0 0 0
0 0 0 0 0 0 0 0 0 0 0 0 0 0 0 0 0 0 0 0 0 0 0 0 0 0 0 0 0 0 0 0 0 0 0 0 0 0 0 0 0 0 0
0 0 0 0 0 0 0 0 0 0 0 0 0 0 0 0 0 0 0 0 0 0 0 0 0 0 0 0 0 0 0 0 0 0 0 0 0 0 0 0 0 0 0
0 0 0 0 0 0 0 0 0 0 0 0 0 0 0 0 0 0 0 0 0 0 0 0 0 0 0 0 0 0 0 0 0 0 0 0 0 0 0 0 0 0 0
0 0 0 0 0 0 0 0 0 0 0 0 0 0 0 0 0 0 0 0 0 0 0 0 0 0 0 0 0 0 0 0 0 0 0 0 0 0 0 0 0 0 0
0 0 0 0 0 0 0 0 0 0 0 0 0 0 0 0 0 0 0 0 0 0 0 0 0 0 0 0 0 0 0 0 0 0 0 0 0 0 0 0 0 0 0
0 0 0 0 0 0 0 0 0 0 0 0 0 0 0 0 0 0 0 0 0 0 0 0 0 0 0 0 0 0 0 0 0 0 0 0 0 0 0 0 0 0 0
0 0 0 0 0 0 0 0 0 0 0 0 0 0 0 0 0 0 0 0 0 0 0 0 0 0 0 0 0 0 0 0 0 0 0 0 0 0 0 0 0 0 0
0 0 0 0 0 0 0 0 0 0 0 0 0 0 0 0 0 0 0 0 0 0 0 0 0 0 0 0 0 0 0 0 0 0 0 0 0 0 0 0 0 0 0
0 0 0 0 0 0 0 0 0 0 0 0 0 0 0 0 0 0 0 0 0 0 0 0 0 0 0 0 0 0 0 0 0 0 0 0 0 0 0 0 0 0 0
0 0 0 0 0 0 0 0 0 0 0 0 0 0 0 0 0 0 0 0 0 0 0 0 0 0 0 0 0 0 0 0 0 0 0 0 0 0 0 11 0 0 0
0 0 0 0 0 0 0 0 0 0 0 0 0 0 0 0 0 0 0 0 0 0 0 0 0 0 0 0 0 0 0 0 0 0 0 0 0 0 0 2 0 0 0
0 0 0 0 0 0 0 0 0 0 0 0 0 0 0 0 0 0 0 0 0 0 0 0 0 0 0 0 0 0 0 0 0 0 0 0 0 0 0 0 1 7 0
0 0 0 0 0 0 0 0 0 0 0 0 0 0 0 0 0 0 0 0 0 0 0 0 0 0 0 0 0 0 0 0 0 0 0 0 1 5 0 0 0 0 0
0 0 0 0 0 0 0 0 0 0 0 0 0 0 0 0 0 0 0 0 0 0 0 0 0 0 0 0 10 24 14 7 1 1 0 0 0 0 0 0 0 0 0
0 0 0 0 0 0 0 0 0 0 0 0 0 0 0 0 0 0 0 0 0 0 4 12 14 3 20 29 31 40 41 42 41 13 4 0 0 0 0 0 0 0 0
CIN
0 0 0 0 0 0 0 0 0 0 0 0 0 0 0 0 0 0 0 0 0 0 0 0 0 0 0 0 0 0 0 0 0 0 0 0 0 0 0 0 0 0 0
0 0 0 0 0 0 0 0 0 0 0 0 0 0 0 0 0 0 0 0 0 0 0 0 0 0 0 0 0 0 0 0 0 0 0 0 0 0 0 0 0 0 0
0 0 0 0 0 0 0 0 0 0 0 0 0 0 0 0 0 0 0 0 0 0 0 0 0 0 0 0 0 0 0 0 0 0 0 0 0 0 0 0 0 0 0
0 0 0 0 0 0 0 0 0 0 0 0 0 0 0 0 0 0 0 0 0 0 0 0 0 0 0 0 0 0 0 0 0 0 0 0 0 0 0 0 0 0 0
0 0 0 0 0 0 0 0 0 0 0 0 0 0 0 0 0 0 0 0 0 0 0 0 0 0 0 0 0 0 0 0 0 0 0 0 0 0 0 0 0 0 0
0 0 0 0 0 0 0 0 0 0 0 0 0 0 0 0 0 0 0 0 0 0 0 0 0 0 0 0 0 0 0 0 0 0 0 0 0 0 0 0 0 0 0
0 0 0 0 0 0 0 0 0 0 0 0 0 0 0 0 0 0 0 0 0 0 0 0 0 0 0 0 0 0 0 0 0 0 0 0 0 0 0 0 0 0 0
0 0 0 0 0 0 0 0 0 0 0 0 0 0 0 0 0 0 0 0 0 0 0 0 0 0 0 0 0 0 0 0 0 0 0 0 0 0 0 0 0 0 0
0 0 0 0 0 0 0 0 0 0 0 0 0 0 0 0 0 0 0 0 0 0 0 0 0 0 0 0 0 0 0 0 0 0 0 0 0 0 0 0 0 0 0
0 0 0 0 0 0 0 0 0 0 0 0 0 0 0 0 0 0 0 0 0 0 0 0 0 0 0 0 0 0 0 0 0 0 0 0 0 0 0 0 0 0 0
0 0 0 0 0 0 0 0 0 0 0 0 0 0 0 0 0 0 0 0 0 0 0 0 0 0 0 0 0 0 0 0 0 0 0 0 0 0 0 0 0 0 0
0 0 0 0 0 0 0 0 0 0 0 0 0 0 0 0 0 0 0 0 0 0 0 0 0 0 0 0 0 0 0 0 0 0 0 0 0 0 0 0 0 0 0
0 0 0 0 0 0 0 0 0 0 0 0 0 0 0 0 0 0 0 0 0 0 0 0 0 0 0 0 0 0 0 0 0 0 0 0 0 0 0 0 0 0 0
0 0 0 0 0 0 0 0 0 0 0 0 0 0 0 0 0 0 0 0 0 0 0 0 0 0 0 0 0 0 0 0 0 0 0 0 0 0 0 0 0 0 0
0 0 0 0 0 0 0 0 0 0 0 0 0 0 0 0 0 0 0 0 0 0 0 0 0 0 0 0 0 0 0 0 0 0 0 0 0 0 0 0 0 0 0
0 0 0 0 0 0 0 0 0 0 0 0 0 0 0 0 0 0 0 0 0 0 0 0 0 0 0 0 0 0 0 0 0 0 0 0 0 0 0 0 0 0 0
0 0 0 0 0 0 0 0 0 0 0 0 0 0 0 0 0 0 0 0 0 0 0 0 0 0 0 0 0 0 0 0 0 0 0 0 0 0 0 0 0 0 0
0 0 0 0 0 0 0 0 0 0 0 0 0 0 0 0 0 0 0 0 0 0 0 0 0 0 0 0 0 0 0 0 0 0 0 0 0 0 0 0 0 0 0
0 0 0 0 0 0 0 0 0 0 0 0 0 0 0 0 0 0 0 0 0 0 0 0 0 0 0 0 0 0 0 0 0 0 0 0 0 0 0 0 0 0 0
0 0 0 0 0 0 0 0 0 0 0 0 0 0 0 0 0 0 0 0 0 0 0 0 0 0 0 0 0 0 0 0 0 0 0 0 0 0 0 0 0 0 0
0 0 0 0 0 0 0 0 0 0 0 0 0 0 0 0 0 0 0 0 0 0 0 0 0 0 0 0 0 0 0 0 0 0 0 0 0 0 0 -13 0 0 0
0 0 0 0 0 0 0 0 0 0 0 0 0 0 0 0 0 0 0 0 0 0 0 0 0 0 0 0 0 0 0 0 0 0 0 0 0 0 0 -2 0 0 -6
0 0 0 0 0 0 0 0 0 0 0 0 0 0 0 0 0 0 0 0 0 0 0 0 0 0 0 0 0 0 0 0 0 0 0 0 0 0 0 0 0 0 -1
0 0 0 0 0 0 0 0 0 0 0 0 0 0 0 0 0 0 0 0 0 0 0 0 0 0 0 0 0 0 0 0 0 0 0 0 -1 -5 -1 0 0 0 0
0 0 0 0 0 0 0 0 0 0 0 0 0 0 0 0 0 0 0 0 0 0 0 0 0 0 0 0 -1 -2 -1 -1 -5 -5 0 0 0 0 0 0 0 0 0
0 0 0 0 0 0 0 0 0 0 0 0 0 0 0 0 0 0 0 0 0 0 0 0 -1 -3 -1 0 0 0 0 0 0 -2 -4 0 0 0 0 0 0 0 0
Wind_Speed
1 3 4 6 7 5 6 6 5 3 2 1 2 1 1 1 2 3 5 5 4 5 5 4 4 4 4 3 5 3 4 3 6 3 4 3 3 3 3 4 4 5 5
4 4 5 5 4 6 5 4 3 2 1 2 1 2 2 1 2 1 4 5 5 6 4 4 4 5 4 6 5 5 3 2 4 3 0 4 5 4 3 2 4 6 4
9 6 6 5 4 5 4 4 4 3 2 3 2 2 2 2 3 3 3 4 5 5 5 5 4 5 4 4 4 4 5 4 3 4 3 3 2 4 3 3 3 5 4
6 6 6 5 5 4 3 3 3 3 2 2 2 2 2 1 0 0 1 2 4 4 5 5 5 4 3 5 3 3 2 2 4 3 3 1 2 1 5 3 3 5 5
7 7 6 5 4 5 4 3 3 3 2 3 4 4 3 2 1 0 2 3 3 3 4 4 4 4 3 3 4 4 4 2 1 1 2 2 2 1 1 5 5 3 3
5 5 5 5 4 3 3 3 4 3 3 3 3 4 4 3 2 1 1 1 1 2 3 4 4 3 3 3 3 2 3 2 1 1 0 1 1 2 1 3 4 5 4
6 6 6 5 5 7 7 5 5 4 4 3 3 3 3 4 4 3 3 2 1 1 2 2 3 2 3 3 3 3 3 3 1 1 1 1 2 1 2 2 3 3 4
5 6 7 7 6 6 6 6 6 5 4 3 3 4 5 3 3 3 3 3 2 2 2 2 2 2 2 2 3 2 2 2 1 2 2 2 2 2 2 2 2 3 3
4 3 3 5 6 6 7 7 6 6 5 5 4 4 4 4 4 4 3 2 3 2 2 2 3 3 2 2 2 1 2 2 2 3 2 2 2 2 2 2 3 3 3
4 4 4 5 5 6 6 6 6 7 5 4 4 4 4 4 4 3 4 4 4 2 3 3 3 3 3 2 2 3 2 2 3 3 3 3 2 3 2 3 3 3 4
7 6 6 5 4 4 5 6 5 5 4 4 3 4 4 4 4 4 4 4 2 3 3 3 3 3 3 3 3 3 4 4 5 3 4 6 4 3 3 3 2 3 3
5 5 7 7 7 7 6 4 3 4 4 3 3 3 4 3 3 4 5 3 4 4 5 4 4 4 4 4 4 5 4 5 6 6 5 6 3 6 4 3 5 4 4
6 5 6 7 7 7 7 5 4 3 2 1 1 2 2 3 4 5 5 4 5 5 5 5 5 5 5 5 5 6 6 6 6 6 6 7 5 6 4 4 4 4 3
6 5 7 7 7 7 9 9 8 7 6 5 5 4 5 5 5 5 5 5 5 6 6 6 6 6 6 6 6 6 7 6 6 6 7 7 7 7 6 6 6 5 4
6 6 5 5 6 7 7 7 7 7 6 6 6 5 5 4 5 5 6 6 5 5 5 6 6 6 5 5 6 6 6 7 7 7 7 7 9 14 12 5 6 5 4
4 4 4 5 6 6 6 6 6 6 6 6 6 6 6 6 6 6 6 6 6 6 5 6 6 7 5 11 14 12 6 7 7 7 8 6 11 12 17 17 18 10 6
5 4 4 3 3 4 3 5 5 4 6 5 5 5 4 5 5 6 6 6 6 5 6 7 6 7 7 14 15 15 6 6 7 7 8 8 7 10 7 12 16 14 16
4 3 2 2 2 2 3 3 4 4 5 5 5 6 6 6 7 7 7 6 5 6 7 8 7 7 8 16 16 16 7 7 8 8 9 8 9 9 8 7 7 7 7
4 4 4 3 2 2 2 2 3 4 4 5 5 5 5 6 6 7 8 7 6 6 6 6 8 8 10 17 19 16 7 7 9 8 8 8 8 15 18 7 7 7 8
2 2 1 1 2 3 3 3 5 5 6 7 7 6 6 6 7 7 9 6 5 9 7 9 7 12 11 17 20 18 7 7 7 7 8 15 12 17 18 8 7 7 9
1 2 2 4 6 5 4 7 7 8 9 7 7 6 6 7 7 8 6 8 8 7 8 8 10 9 11 12 21 20 9 6 8 6 7 6 15 17 17 18 6 9 8
3 3 4 6 7 6 4 8 9 10 9 8 7 7 7 7 7 7 10 8 6 7 8 7 9 8 9 15 17 20 20 18 8 9 8 8 18 18 19 15 16 20 17
4 3 5 7 7 7 6 8 11 7 9 8 9 8 8 8 8 7 9 7 6 5 8 7 9 10 8 7 17 21 22 22 12 6 11 20 21 21 17 20 20 17 4
5 3 5 7 8 6 7 8 10 9 7 10 10 9 6 10 8 6 7 7 8 7 8 8 9 10 9 7 6 6 9 16 13 13 11 13 17 18 14 13 10 5 5
4 4 6 7 10 9 10 8 8 8 10 11 10 10 8 10 10 9 8 7 9 9 8 8 8 9 11 10 17 18 11 9 11 13 7 6 6 7 7 7 7 6 5
5 6 7 7 11 10 12 11 7 7 11 11 9 9 8 8 7 8 9 14 20 22 22 22 18 11 21 26 26 26 25 25 26 12 9 8 7 8 8 7 8 7 9
Wind_Direction
131 101 112 120 122 124 136 151 151 146 126 114 129 82 104 29 54 49 40 35 30 34 29 16 8 10 33 5 5 336 354 339 343 4 349 334 352 8 41 34 37 26 1
158 123 124 133 145 148 148 143 134 135 124 119 134 126 145 117 103 48 41 30 35 25 29 24 12 17 16 14 13 17 341 339 20 38 213 4 337 2 12 12 22 14 346
174 163 160 158 138 149 157 149 164 148 92 126 117 84 70 48 35 22 9 7 23 24 26 23 23 19 29 15 5 8 18 351 334 45 104 19 330 321 330 354 8 1 359
154 166 164 157 165 172 164 165 151 146 146 107 90 96 110 109 69 34 303 353 21 20 24 29 28 26 22 26 359 17 15 25 12 336 18 62 166 47 328 321 338 356 340
174 173 169 173 187 162 177 179 174 151 116 103 117 122 118 131 159 51 25 10 2 20 26 39 37 35 31 19 29 17 20 23 23 19 337 342 360 63 208 292 311 326 324
167 161 181 169 176 171 181 187 188 186 154 130 121 128 144 151 117 96 60 332 311 338 11 12 17 14 22 9 11 28 48 32 28 360 315 248 317 306 299 296 309 296 297
175 189 189 189 193 199 204 205 201 210 185 167 152 147 157 170 181 187 196 213 269 272 303 360 4 354 344 357 11 24 19 24 36 341 289 234 239 220 222 218 270 306 310
188 200 206 209 215 218 218 217 213 224 202 191 199 192 191 192 198 198 201 218 221 246 275 307 317 328 336 352 10 19 348 10 1 337 303 283 265 209 201 224 201 307 290
194 238 258 236 233 234 233 221 221 229 220 213 209 211 207 201 211 218 217 228 241 248 262 287 301 311 317 342 359 357 330 332 313 304 292 270 273 263 256 224 196 189 284
34 345 311 278 257 249 250 234 226 232 234 225 222 226 226 227 231 225 241 241 257 252 289 295 295 301 307 321 344 321 304 308 304 294 306 296 278 291 278 264 242 212 205
39 20 2 344 303 286 263 248 229 230 241 234 240 237 236 229 226 233 246 249 258 265 268 264 275 285 296 301 305 294 288 298 298 287 279 285 268 263 263 252 245 237 194
62 38 22 15 17 359 327 280 263 243 255 273 280 290 314 319 294 280 282 278 269 270 258 261 264 273 276 270 264 275 273 273 284 280 281 277 283 278 256 229 236 232 216
72 51 39 32 21 13 11 12 1 334 335 343 359 352 316 309 297 300 302 291 281 275 275 263 266 276 279 285 276 265 268 263 258 258 253 262 261 272 265 257 248 226 231
75 61 44 34 26 24 31 31 30 26 26 40 47 30 1 342 326 314 306 294 283 281 279 273 272 270 276 272 270 268 270 265 255 249 242 249 242 251 256 252 252 242 234
80 68 61 43 34 33 30 30 32 34 39 55 50 29 6 350 332 324 312 300 288 274 272 277 276 274 268 268 269 262 261 264 272 265 252 247 244 251 249 240 254 234 239
118 97 74 64 51 41 37 32 29 28 33 37 27 13 10 358 350 343 337 322 310 300 289 284 280 289 283 280 287 288 258 258 252 263 273 251 265 263 266 267 264 237 214
156 137 96 71 62 49 39 32 17 17 31 25 5 358 345 339 331 321 317 313 306 298 288 281 273 269 265 280 287 291 271 249 253 253 254 270 265 259 243 262 269 266 263
158 101 66 30 4 349 19 356 7 14 10 2 351 346 344 334 326 325 314 300 288 284 280 278 274 270 271 280 284 286 273 258 249 248 252 248 264 265 256 246 253 244 243
155 168 182 194 221 281 312 343 345 343 342 328 319 314 312 306 302 296 289 283 282 281 271 266 271 267 277 278 282 287 262 255 259 256 248 241 253 264 275 258 250 258 259
140 175 247 290 300 275 300 305 288 287 282 270 259 258 259 266 278 275 279 272 257 279 280 281 267 268 275 278 285 288 273 256 259 262 251 264 258 262 268 252 228 246 256
242 255 287 274 271 287 275 277 275 265 260 266 263 262 261 261 258 269 260 268 272 272 272 272 278 268 264 272 282 288 282 254 261 252 262 255 263 270 271 266 220 231 247
264 288 293 291 290 288 279 275 272 275 275 269 268 266 262 266 275 262 279 269 260 265 273 265 278 273 264 267 278 289 290 285 253 248 253 249 260 266 268 260 263 267 270
278 284 263 279 284 280 264 276 281 282 281 280 275 272 271 267 263 257 267 274 262 248 271 271 277 282 276 269 278 284 289 288 282 261 252 264 269 269 269 269 271 273 253
268 259 283 284 284 274 264 239 277 283 272 273 275 276 259 277 265 249 250 256 264 264 262 267 272 278 283 280 268 256 268 278 278 271 267 262 262 258 255 263 264 239 218
292 299 303 295 293 300 296 286 273 278 285 286 283 280 274 270 273 264 260 256 260 250 265 267 273 282 286 285 285 290 289 272 254 262 249 251 249 251 249 247 246 235 224
321 318 305 297 296 293 290 292 268 257 268 279 281 276 278 276 267 271 280 267 276 282 286 289 288 286 287 295 298 299 300 297 295 286 272 258 232 235 241 234 240 232 233